Tracking 28790 objects as of 19-Apr-2024
HD Live streaming from Space Station
objects crossing your sky now

CZ-4 DEB

Track CZ-4 DEB now!
10-day predictions


NORAD ID: 26266
Int'l Code: 1999-057FC
Perigee: 643.1 km
Apogee: 770.8 km
Inclination: 98.5 °
Period: 98.8 minutes
Semi major axis: 7077 km
RCS: 0.034 m2 (small)
Launch date: October 14, 1999
Source: People's Republic of China (PRC)
Launch site: Taiyaun Space Center, China (TSC)

Note: This is SATELLITE DEBRIS
Your satellite tracking list
Your tracking list is empty




NASA's NSSDC Master Catalog

Two Line Element Set (TLE):
1 26266U 99057FC  24109.13077447  .00014035  00000-0  28972-2 0  9994
2 26266  98.4705 175.7193 0090256  29.5555 331.0701 14.57944699267438
Source of the keplerian elements: AFSPC